This is the latest recevied weather packets stored in our database for station/object KF7ROW. If no packets are shown the sender has not sent any weather packets the latest 10 day(s).
| Time | Temp. | Humidity | Pressure | Rain* | Wind** | Luminosity | Snow |
|---|---|---|---|---|---|---|---|
| 1777517236 | 13.89° C | 76% | 1025.1 hPa | 0 mm | - | 17 W/m² | - |
| 1777516935 | 13.89° C | 77% | 1025 hPa | 0 mm | - | 19 W/m² | - |
| 1777516631 | 14.44° C | 74% | 1025.1 hPa | 0 mm | - | 22 W/m² | - |
| 1777516327 | 14.44° C | 75% | 1025.2 hPa | 0 mm | - | 25 W/m² | - |
| 1777516023 | 14.44° C | 73% | 1025.1 hPa | 0 mm | - | 29 W/m² | - |
| 1777515720 | 14.44° C | 72% | 1025 hPa | 0 mm | - | 29 W/m² | - |
| 1777515416 | 14.44° C | 73% | 1025.3 hPa | 0 mm | - | 32 W/m² | - |
| 1777515113 | 14.44° C | 72% | 1025.2 hPa | 0 mm | - | 34 W/m² | - |
| 1777514810 | 14.44° C | 73% | 1025.1 hPa | 0 mm | - | 35 W/m² | - |
| 1777514507 | 14.44° C | 72% | 1025.3 hPa | 0 mm | - | 37 W/m² | - |
| 1777514204 | 14.44° C | 72% | 1025.2 hPa | 0 mm | - | 39 W/m² | - |
| 1777513900 | 14.44° C | 70% | 1025.2 hPa | 0 mm | - | 44 W/m² | - |
| 1777513598 | 15° C | 71% | 1025.3 hPa | 0 mm | - | 47 W/m² | - |
| 1777513294 | 15° C | 69% | 1025.3 hPa | 0 mm | - | 51 W/m² | - |
| 1777512990 | 15° C | 68% | 1025.3 hPa | 0 mm | - | 128 W/m² | - |
| 1777512686 | 15° C | 68% | 1025.4 hPa | 0 mm | - | 141 W/m² | - |
| 1777512384 | 15.56° C | 66% | 1025.3 hPa | 0 mm | - | 155 W/m² | - |
| 1777512081 | 15.56° C | 65% | 1025.5 hPa | 0 mm | - | 167 W/m² | - |
| 1777511779 | 15.56° C | 66% | 1025.5 hPa | 0 mm | - | 181 W/m² | - |
| 1777511475 | 15° C | 65% | 1025.4 hPa | 0 mm | - | 194 W/m² | - |
| 1777511172 | 15° C | 67% | 1025.5 hPa | 0 mm | - | 210 W/m² | - |
| 1777510868 | 15° C | 65% | 1025.5 hPa | 0 mm | - | 223 W/m² | - |
| 1777510565 | 15° C | 64% | 1025.4 hPa | 0 mm | - | 237 W/m² | - |
| 1777510261 | 15.56° C | 64% | 1025.5 hPa | 0 mm | - | 252 W/m² | - |
| 1777509958 | 15.56° C | 64% | 1025.4 hPa | 0 mm | - | 270 W/m² | - |
* Rain latest hour (hover to see other rain measurements)
** Current wind speed in m/s (hover to see current wind gust speed)